Location: Alincthun
(50.7310°N, 1.8022°E)
Time: 19:33:02
(UTC+00:00)

NOSS 3-1 (A) - Pass Details

Date: 17 February 2020
Orbit: 761 x 1452 km, 63.4° (Epoch: 26 March)

Event Time Altitude Azimuth Distance (km) Brightness Sun altitude
Exits shadow 03:39:14 70° 324° (NW) 1,315 3.9 -32.3°
Maximum altitude 03:40:17 87° 46° (NE) 1,271 3.9 -32.2°
Drops below altitude 10° 03:48:49 10° 137° (SE) 3,459 6.6 -30.9°
Sets 03:51:52 0° 138° (SE) 4,484 7.2 -30.5°
